GW4164 Weather Reports


time (UTC)temp
C
wind
direction
speed
KPH
gust
KPH
rain 1hr
cm
rain 24hr
cm
rain mn
cm
humidity
%
barometer
mb
20260510230804 30 96 3.2 11.3 0.00 0.00 0.00 18
20260510225802 30 110 1.6 4.8 0.00 0.00 0.00 17
20260510224759 31 180 0.0 3.2 0.00 0.00 0.00 17
20260510223759 30 110 4.8 14.5 0.00 0.00 0.00 18
20260510222754 30 204 3.2 9.7 0.00 0.00 0.00 17
20260510221751 31 264 6.4 14.5 0.00 0.00 0.00 17
20260510220751 30 45 6.4 14.5 0.00 0.00 0.00 18
20260510215749 31 258 11.3 16.1 0.00 0.00 0.00 18
20260510214749 31 340 0.0 1.6 0.00 0.00 0.00 18
20260510213749 30 274 4.8 9.7 0.00 0.00 0.00 19
20260510212748 30 277 1.6 9.7 0.00 0.00 0.00 18
20260510211747 31 273 1.6 4.8 0.00 0.00 0.00 18
20260510210745 31 214 4.8 9.7 0.00 0.00 0.00 18
20260510205740 31 59 0.0 4.8 0.00 0.00 0.00 18
20260510204738 31 69 9.7 17.7 0.00 0.00 0.00 18
20260510203737 31 258 4.8 6.4 0.00 0.00 0.00 18
20260510202734 30 179 6.4 9.7 0.00 0.00 0.00 19
20260510201734 31 96 0.0 9.7 0.00 0.00 0.00 18
20260510200733 31 232 9.7 22.5 0.00 0.00 0.00 18
20260510195732 31 23 0.0 11.3 0.00 0.00 0.00 19
20260510194728 31 71 0.0 14.5 0.00 0.00 0.00 19
20260510193727 31 272 3.2 6.4 0.00 0.00 0.00 19
20260510192723 30 222 3.2 14.5 0.00 0.00 0.00 19
20260510191721 30 14 1.6 12.9 0.00 0.00 0.00 20
20260510190721 30 54 0.0 0.0 0.00 0.00 0.00 19
20260510185721 30 70 1.6 11.3 0.00 0.00 0.00 20
20260510184721 30 207 6.4 16.1 0.00 0.00 0.00 20
20260510183719 30 203 4.8 12.9 0.00 0.00 0.00 19
20260510182717 30 142 3.2 6.4 0.00 0.00 0.00 20
20260510181715 29 66 1.6 3.2 0.00 0.00 0.00 20
20260510180714 28 1 4.8 11.3 0.00 0.00 0.00 21
20260510175713 30 110 4.8 16.1 0.00 0.00 0.00 20
20260510174713 28 135 3.2 6.4 0.00 0.00 0.00 22
20260510173712 28 82 3.2 11.3 0.00 0.00 0.00 22
20260510172709 27 64 1.6 4.8 0.00 0.00 0.00 22
20260510171708 27 78 0.0 6.4 0.00 0.00 0.00 22
20260510170703 27 88 0.0 4.8 0.00 0.00 0.00 23
20260510165701 28 171 0.0 1.6 0.00 0.00 0.00 22
20260510164701 27 82 0.0 1.6 0.00 0.00 0.00 24
20260510163658 26 116 3.2 4.8 0.00 0.00 0.00 24
20260510162654 26 120 1.6 11.3 0.00 0.00 0.00 25
20260510161652 25 94 4.8 6.4 0.00 0.00 0.00 26
20260510160652 26 66 4.8 6.4 0.00 0.00 0.00 26
20260510155649 25 52 0.0 6.4 0.00 0.00 0.00 28
20260510154646 25 72 0.0 1.6 0.00 0.00 0.00 27
20260510153643 25 222 1.6 3.2 0.00 0.00 0.00 28
20260510152641 23 111 0.0 6.4 0.00 0.00 0.00 30
20260510151640 24 71 0.0 0.0 0.00 0.00 0.00 28
20260510150640 23 91 0.0 3.2 0.00 0.00 0.00 30
20260510145637 23 64 0.0 3.2 0.00 0.00 0.00 30
20260510144635 22 66 0.0 1.6 0.00 0.00 0.00 32
20260510143633 23 78 0.0 0.0 0.00 0.00 0.00 31
20260510142632 21 74 0.0 0.0 0.00 0.00 0.00 32
20260510141631 21 80 0.0 0.0 0.00 0.00 0.00 33
20260510140626 19 69 0.0 0.0 0.00 0.00 0.00 36
20260510135626 18 64 0.0 0.0 0.00 0.00 0.00 38
20260510134626 17 71 0.0 0.0 0.00 0.00 0.00 38
20260510133625 16 46 0.0 0.0 0.00 0.00 0.00 40
20260510132623 16 62 0.0 0.0 0.00 0.00 0.00 39
20260510131624 16 70 0.0 0.0 0.00 0.00 0.00 39
20260510130623 14 65 0.0 0.0 0.00 0.00 0.00 43
20260510125623 14 60 0.0 0.0 0.00 0.00 0.00 44
20260510124622 13 63 0.0 0.0 0.00 0.00 0.00 44
20260510123620 13 44 0.0 0.0 0.00 0.00 0.00 44
20260510122618 13 65 0.0 0.0 0.00 0.00 0.00 44
20260510121617 13 37 0.0 0.0 0.00 0.00 0.00 44
20260510120613 13 68 0.0 0.0 0.00 0.00 0.00 44
20260510115610 13 72 0.0 0.0 0.00 0.00 0.00 43
20260510114609 13 67 0.0 0.0 0.00 0.00 0.00 43
20260510113607 14 61 0.0 0.0 0.00 0.00 0.00 42
20260510112607 14 43 0.0 0.0 0.00 0.00 0.00 42
20260510111606 15 59 0.0 0.0 0.00 0.00 0.00 41
20260510110604 15 54 0.0 0.0 0.00 0.00 0.00 40
20260510105602 15 61 0.0 0.0 0.00 0.00 0.00 40
20260510104600 16 59 0.0 0.0 0.00 0.00 0.00 40
20260510103559 16 58 0.0 0.0 0.00 0.00 0.00 40
20260510102556 16 64 0.0 0.0 0.00 0.00 0.00 39
20260510101557 16 55 0.0 0.0 0.00 0.00 0.00 38
20260510100556 16 59 0.0 0.0 0.00 0.00 0.00 38
20260510095555 16 43 0.0 0.0 0.00 0.00 0.00 38
20260510094555 17 59 0.0 0.0 0.00 0.00 0.00 38
20260510093553 17 46 0.0 0.0 0.00 0.00 0.00 38
20260510092552 17 63 0.0 0.0 0.00 0.00 0.00 37
20260510091549 17 62 0.0 0.0 0.00 0.00 0.00 38
20260510090547 17 71 0.0 0.0 0.00 0.00 0.00 39
20260510085544 17 67 0.0 0.0 0.00 0.00 0.00 39
20260510084542 17 71 0.0 0.0 0.00 0.00 0.00 38
20260510083541 17 71 0.0 0.0 0.00 0.00 0.00 38
20260510082540 17 90 0.0 0.0 0.00 0.00 0.00 38
20260510081537 18 71 0.0 0.0 0.00 0.00 0.00 36
20260510080538 18 76 0.0 0.0 0.00 0.00 0.00 36
20260510075532 18 74 0.0 0.0 0.00 0.00 0.00 36
20260510074527 18 73 0.0 0.0 0.00 0.00 0.00 35
20260510073524 18 75 0.0 0.0 0.00 0.00 0.00 36
20260510072524 18 69 0.0 0.0 0.00 0.00 0.00 36
20260510071521 19 77 0.0 0.0 0.00 0.00 0.00 35
20260510070516 19 65 0.0 0.0 0.00 0.00 0.00 34
20260510065515 20 72 0.0 0.0 0.00 0.00 0.00 34
20260510064514 20 65 0.0 0.0 0.00 0.00 0.00 34
20260510063513 20 65 0.0 0.0 0.00 0.00 0.00 34
20260510062512 20 110 0.0 0.0 0.00 0.00 0.00 32
20260510061510 20 109 0.0 0.0 0.00 0.00 0.00 32
20260510060509 20 102 0.0 0.0 0.00 0.00 0.00 32
20260510055507 20 77 0.0 0.0 0.00 0.00 0.00 32
20260510054507 20 102 0.0 0.0 0.00 0.00 0.00 32
20260510053502 20 104 0.0 0.0 0.00 0.00 0.00 32
20260510052502 21 78 0.0 0.0 0.00 0.00 0.00 31
20260510051459 21 79 0.0 0.0 0.00 0.00 0.00 30
20260510050454 22 103 0.0 0.0 0.00 0.00 0.00 29
20260510045454 22 76 0.0 1.6 0.00 0.00 0.00 28
20260510044452 22 111 0.0 0.0 0.00 0.00 0.00 28
20260510043451 22 89 0.0 0.0 0.00 0.00 0.00 27
20260510042451 23 23 0.0 0.0 0.00 0.00 0.00 27
20260510041449 23 102 0.0 0.0 0.00 0.00 0.00 27
20260510040449 23 70 0.0 0.0 0.00 0.00 0.00 27
20260510035448 24 69 0.0 0.0 0.00 0.00 0.00 26
20260510034447 25 161 3.2 6.4 0.00 0.00 0.00 25
20260510033444 23 147 1.6 9.7 0.00 0.00 0.00 26
20260510032445 23 65 0.0 0.0 0.00 0.00 0.00 27
20260510031440 24 73 0.0 0.0 0.00 0.00 0.00 27
20260510030437 24 85 0.0 0.0 0.00 0.00 0.00 26
20260510025432 25 76 0.0 0.0 0.00 0.00 0.00 26
20260510024432 25 79 0.0 1.6 0.00 0.00 0.00 25
20260510023430 25 59 0.0 0.0 0.00 0.00 0.00 24
20260510022427 25 257 4.8 4.8 0.00 0.00 0.00 24
20260510021424 25 106 0.0 3.2 0.00 0.00 0.00 23
20260510020421 26 299 1.6 3.2 0.00 0.00 0.00 22
20260510015418 26 302 6.4 9.7 0.00 0.00 0.00 22
20260510014417 26 257 8.0 14.5 0.00 0.00 0.00 21
20260510013414 27 263 1.6 3.2 0.00 0.00 0.00 21
20260510012411 27 100 0.0 1.6 0.00 0.00 0.00 20
20260510011407 27 208 1.6 6.4 0.00 0.00 0.00 20
20260510010407 28 245 4.8 11.3 0.00 0.00 0.00 20
20260510005406 28 159 3.2 11.3 0.00 0.00 0.00 19
20260510004401 28 222 3.2 6.4 0.00 0.00 0.00 19
20260510003355 28 75 4.8 9.7 0.00 0.00 0.00 19
20260510002351 28 220 1.6 9.7 0.00 0.00 0.00 19
20260510001346 29 178 4.8 9.7 0.00 0.00 0.00 19
20260510000345 29 154 0.0 4.8 0.00 0.00 0.00 19
20260509235344 29 206 3.2 9.7 0.00 0.00 0.00 18
20260509234343 30 263 8.0 11.3 0.00 0.00 0.00 18
20260509233339 30 135 4.8 11.3 0.00 0.00 0.00 19
20260509232338 30 184 11.3 20.9 0.00 0.00 0.00 19
20260509231337 31 250 8.0 16.1 0.00 0.00 0.00 18